Regional Weather Roundup
Issued by NWS

Home | Current Version | Previous Version | Graphics & Text | Print | Product List | Glossary Off
Versions: 1 2 3 4 5 6 7 8 9 10 11 12 13 14 15 16 17 18 19 20 21 22 23 24 25 26 27 28 29 30 31 32 33 34 35 36 37 38 39 40 41 42 43 44 45 46 47 48 49 50

000
ASUS43 KTOP 290008
RWRKS

WEATHER ROUNDUP FOR KANSAS
NATIONAL WEATHER SERVICE GOODLAND KS
700 PM CDT SUN MAY 28 2017

NOTE:  "FAIR" INDICATES FEW OR NO CLOUDS BELOW 12,000 FEET WITH NO
SIGNIFICANT WEATHER AND/OR OBSTRUCTIONS TO VISIBILITY.

KSZ001>006-013>018-027>032-041>047-290100-
NORTHWEST KANSAS

CITY           SKY/WX    TMP DP  RH WIND       PRES   REMARKS
GOODLAND       MOSUNNY   73  41  31 W9        30.10F
6HR MIN TEMP:  70; 6HR MAX TEMP:  75;

HAYS           SUNNY     78  46  32 W9        30.01F
HILL CITY      PTSUNNY   78  44  29 NW8       30.02F
6HR MIN TEMP:  77; 6HR MAX TEMP:  82;

RUSSELL        SUNNY     79  44  28 W12       29.99F
6HR MIN TEMP:  75; 6HR MAX TEMP:  79;

$$

KSZ061>065-074>080-084>089-290100-
SOUTHWEST KANSAS

CITY           SKY/WX    TMP DP  RH WIND       PRES   REMARKS
DODGE CITY     SUNNY     77  39  25 N10       30.06F
6HR MIN TEMP:  74; 6HR MAX TEMP:  80;

ELKHART          N/A     74  38  27 MISG        N/A
GARDEN CITY    SUNNY     74  40  29 NW6       30.08F
6HR MIN TEMP:  72; 6HR MAX TEMP:  80;

GREAT BEND     SUNNY     76  49  38 NW7       30.02F
LIBERAL        SUNNY     74  46  36 NW7       30.10F
PRATT          SUNNY     76  38  26 N12       30.03F
6HR MIN TEMP:  73; 6HR MAX TEMP:  79;

$$

KSZ066>073-081>083-090>101-290100-
SOUTHEAST KANSAS

CITY           SKY/WX    TMP DP  RH WIND       PRES   REMARKS
CHANUTE        SUNNY     81  45  28 NW12      29.96F
6HR MIN TEMP:  78; 6HR MAX TEMP:  83;

COFFEYVILLE    SUNNY     82  49  31 NW9       29.95F
6HR MIN TEMP:  76; 6HR MAX TEMP:  83;

HUTCHINSON     SUNNY     80  43  26 N8        29.99F
6HR MIN TEMP:  78; 6HR MAX TEMP:  83;

MEDICINE LODGE   N/A     81  44  27 N8        30.00F
NEWTON         SUNNY     78  44  29 NW9       29.99F
PARSONS        MOSUNNY   80  47  31 NW12      29.97F
6HR MIN TEMP:  77; 6HR MAX TEMP:  83;

WICHITA INTL   MOSUNNY   82  44  26 NW14      29.98F
6HR MIN TEMP:  78; 6HR MAX TEMP:  83;

WICHITA JABRA  SUNNY     80  43  26 NW15      29.98F
6HR MIN TEMP:  78; 6HR MAX TEMP:  82;

WICHITA MCCONL SUNNY     81  41  23 NW13      29.98F
WINFIELD       SUNNY     80  45  28 NW14      29.98F
6HR MIN TEMP:  78; 6HR MAX TEMP:  83;

$$

KSZ007>012-019>026-033>040-048>060-102>105-290100-
NORTHEAST KANSAS

CITY           SKY/WX    TMP DP  RH WIND       PRES   REMARKS
CONCORDIA      MOSUNNY   76  50  40 NW7       29.96F
6HR MIN TEMP:  75; 6HR MAX TEMP:  80;

EMPORIA        SUNNY     78  47  33 NW10      29.96F
6HR MIN TEMP:  77; 6HR MAX TEMP:  80;

LAWRENCE       SUNNY     78  50  37 W10       29.92F
6HR MIN TEMP:  77; 6HR MAX TEMP:  82;

MANHATTAN      SUNNY     80  51  36 W6        29.93F
6HR MIN TEMP:  79; 6HR MAX TEMP:  82;

MARYSVILLE     MOSUNNY   81  45  28 NW16G22   29.92S
OLATHE IND     SUNNY     77  49  37 NW8       29.93F
6HR MIN TEMP:  76; 6HR MAX TEMP:  81;

OLATHE EXE     SUNNY     77  47  34 NW9       29.93F
6HR MIN TEMP:  75; 6HR MAX TEMP:  79;

SALINA         SUNNY     82  48  30 W7        29.97F
6HR MIN TEMP:  80; 6HR MAX TEMP:  83;

TOPEKA BILLARD SUNNY     80  48  32 W12       29.92F
6HR MIN TEMP:  77; 6HR MAX TEMP:  82;

TOPEKA FORBES  SUNNY     80  51  36 W7        29.93F
6HR MIN TEMP:  80; 6HR MAX TEMP:  83;

$$




USA.gov is the U.S. government's official web portal to all federal, state and local government web resources and services.